Location: Round Knob
(37.2473°N, 88.7376°W)
Time: 12:17:00
(UTC+00:00)

GPS 2-04 Rocket1 - Pass Details

Date: 29 October 2020
Orbit: 417 x 546 km, 35.6° (Epoch: 04 December)

Event Time Altitude Azimuth Distance (km) Brightness Sun altitude
Rises 23:30:38 0° 238° (WSW) 2,584 7.8 -6.8°
Reaches altitude 10° 23:32:55 10° 230° (SW) 1,724 6.5 -7.2°
Maximum altitude 23:36:37 38° 161° (SSE) 803 3.6 -7.9°
Enters shadow 23:40:22 11° 93° (E) 1,750 4.7 -8.7°
